Location: Dolosha
(42.1221°N, 44.8439°E)
Time: 12:16:42
(UTC+00:00)

Daily predictions for brighter satellites

Satellite Brightness Start Highest point End
(mag) Time Altitude Azimuth Time Altitude Azimuth Time Altitude Azimuth
NOSS 2-2 (E) 3.7 15:59:46 10° NNW 16:03:42 73° NE 16:09:10 10° SE
USA 234 3.4 15:57:10 10° NE 16:03:45 88° NW 16:10:19 10° SW
NOAA 6 4.3 15:58:59 10° S 16:04:06 77° WSW 16:09:12 10° NNW
Cosmos 1937 Rocket 4.3 15:59:37 10° SSE 16:04:07 29° E 16:08:38 10° NE
Cosmos 2227 4.4 15:58:50 10° NNW 16:04:36 83° WSW 16:10:21 10° SSE
Tiangong -1.1 16:07:10 10° W 16:10:05 36° SSW 16:13:00 10° SE
COSMOS 2428 4.3 16:08:46 10° SE 16:11:32 14° E 16:14:19 10° ENE
Meteor 1-15 Rocket 4.4 16:07:47 10° SSE 16:13:07 50° E 16:18:30 10° NNE
CZ-4B R/B 4.5 16:11:58 10° ESE 16:16:13 23° ENE 16:20:32 10° NNE
Meteor 1-31 Rocket 3.5 16:13:39 10° SE 16:16:42 29° ENE 16:19:47 10° N
CSL-04 Rocket 4.0 16:12:06 10° SE 16:17:22 48° ENE 16:22:41 10° N
Cosmos 2278 Rocket 4.4 16:19:31 10° NNE 16:20:19 10° NE 16:21:08 10° NE
Cosmos 2333 Rocket 3.0 16:16:39 10° SW 16:22:13 57° WNW 16:27:49 10° NNE
NOSS 3-2 (A) 4.2 16:15:22 10° NNW 16:22:47 68° NE 16:31:39 10° SE
Exosat Rocket 4.4 16:19:15 10° NNW 16:24:54 54° ENE 16:32:37 10° SE
COBE Rocket 4.1 16:22:46 10° N 16:27:43 80° WNW 16:32:45 10° SSW
Cosmos 2181 Rocket 4.0 16:23:22 10° N 16:29:31 86° W 16:35:40 10° S
Cosmos 1953 2.0 16:26:00 10° S 16:29:34 87° W 16:33:10 10° N
Meteor 2-5 Rocket 3.7 16:30:04 10° N 16:35:36 70° E 16:41:08 10° SSE
Nadezhda 3 Rocket 4.0 16:30:26 10° N 16:36:31 58° E 16:42:33 10° SSE
Geosat 4.0 16:32:22 10° NE 16:37:17 55° ESE 16:42:10 10° SSW
Cosmos 1470 Rocket 3.5 16:37:06 10° S 16:41:28 74° E 16:45:50 10° NNE
Cosmos 1703 Rocket 4.0 16:37:31 10° N 16:41:36 39° ENE 16:44:37 16° SE
ERS-1 Rocket 3.6 16:38:04 14° SE 16:41:54 38° ENE 16:46:30 10° N
SJ-6B 4.1 16:39:50 10° SSW 16:43:17 39° W 16:46:45 10° NNW
ARIANE 6 FM1 Upper Stage 3.3 16:41:58 10° SW 16:46:03 57° NW 16:50:04 10° NNE
ATLAS 3B R/B 4.1 16:39:17 10° WSW 16:46:37 47° NW 16:54:12 10° NNE
Iridium 82 3.9 16:43:44 10° N 16:46:47 86° E 16:49:43 10° S
Cosmos 1943 Rocket 3.9 16:43:22 10° N 16:47:15 18° NE 16:49:58 14° E
Cosmos 2154 Rocket 4.0 16:41:01 10° S 16:47:18 87° E 16:53:41 10° N
Cosmos 1933 Rocket 4.1 16:44:59 10° SSE 16:49:00 37° E 16:53:02 10° NNE
Lacrosse 5 rocket 0.5 16:47:11 10° SW 16:50:23 66° SE 16:53:33 10° NE
Okean 1-7 4.0 16:48:27 10° NNW 16:52:23 45° W 16:56:17 10° SSW
Cosmos 1844 Rocket 4.5 16:56:22 10° NW 17:01:05 29° WSW 17:05:47 10° SSW
Cosmos 2360 Rocket 3.4 16:56:17 10° SW 17:01:38 44° WNW 17:07:03 10° NNE
Cosmos 1441 Rocket 4.5 16:59:53 10° NNW 17:02:59 35° W 17:06:04 10° SSW
Meteor 2-19 Rocket 4.4 16:57:17 10° N 17:03:25 65° E 17:08:30 15° SSE
Meteor 1-16 Rocket 4.3 16:59:26 10° S 17:05:21 89° E 17:11:18 10° N
Okean-O 3.7 17:05:56 25° E 17:06:46 26° ENE 17:10:25 10° NNE
CBERS 1 LM4 rocket 4.3 17:03:44 21° SSE 17:06:48 66° ENE 17:11:29 10° N
Helios 1A Rocket 3.0 17:04:09 10° N 17:07:20 56° WNW 17:10:28 10° SSW
Cosmos 2228 Rocket 4.1 17:03:04 10° NNW 17:07:22 47° W 17:11:37 10° SSW
Cosmos 2322 Rocket 3.9 17:04:30 10° WSW 17:09:37 36° WNW 17:14:46 10° N
BREEZE-M DEB (TANK) 3.3 17:08:39 10° WNW 17:11:24 71° SSW 17:15:16 26° SE
Feng Yun 1-1 Rocket 4.2 17:08:58 14° SSE 17:13:55 89° WSW 17:19:27 10° NNW
ADEOS 3.5 17:11:21 25° SSE 17:14:24 66° ENE 17:19:35 10° N
BlueWalker 3 4.2 17:15:21 10° W 17:17:35 16° SW 17:19:29 11° SSW
MOS 1 4.2 17:13:20 18° SSE 17:17:38 85° ENE 17:23:19 10° NNW
Cosmos 1869 Rocket 3.6 17:16:58 30° SSE 17:18:54 57° E 17:23:12 10° NNE
Terra 1.7 17:17:03 28° SSE 17:19:29 75° ENE 17:24:11 10° N
Cosmos 2341 Rocket 4.1 17:17:11 18° SSE 17:21:42 54° E 17:27:48 10° NNE
Cosmos 2237 Rocket 3.8 17:24:08 17° ENE 17:24:08 17° ENE 17:26:07 10° NE
Atlas Centaur 2 4.4 17:19:10 10° SW 17:22:39 15° SSW 17:25:12 13° S
Cosmos 2322 3.6 17:19:39 10° SSW 17:25:17 67° ESE 17:30:59 10° NNE
CZ-4 R/B 2.5 17:25:09 13° SSW 17:28:11 38° W 17:31:45 10° NNW
IRS-1A Rocket 4.2 17:26:31 33° SSE 17:29:04 69° ENE 17:34:40 10° N
Okean O Rocket 1.8 17:29:29 46° E 17:29:58 48° ENE 17:34:10 10° N
ASTEX 1 4.3 17:32:11 30° ENE 17:32:11 30° ENE 17:36:16 10° NNE
SL-08 R/B 3.3 17:27:23 10° NNE 17:32:17 83° ESE 17:36:20 15° SSW
Meteor 1-21 Rocket 4.4 17:29:27 10° N 17:34:55 52° ENE 17:36:17 43° ESE
Cosmos 2219 Rocket 3.7 17:33:06 10° SW 17:38:14 37° WNW 17:43:24 10° N
Cosmos 1680 Rocket 3.4 17:35:18 10° NNW 17:40:31 90° ENE 17:42:08 46° SSE
CZ-4B R/B 4.5 17:42:10 21° NE 17:42:10 21° NE 17:43:50 10° NNE
SPOT 3 Rocket 4.3 17:41:05 33° ENE 17:41:19 33° ENE 17:45:57 10° N
SL-8 Rocket 3.9 17:44:34 17° S 17:49:33 88° W 17:55:53 10° N
BREEZE-M DEB (TANK) 4.4 17:48:25 10° NW 17:50:01 19° N 17:50:01 19° N
NOSS 2-3 (E) 4.3 17:48:25 10° NW 17:53:46 85° ENE 17:55:36 50° SE
NOSS 0 Rocket 3.8 17:49:30 21° S 17:53:47 66° ESE 17:59:59 10° NNE
SL-24 R/B - RUBIN 2 3.5 17:49:49 10° NNW 17:54:17 88° ENE 17:54:30 81° SE
COSMOS 2428 2.7 17:49:14 10° SSW 17:54:57 82° WNW 18:00:44 10° NNE
CZ-4B R/B 3.9 17:53:16 25° SSW 17:56:21 52° W 18:01:50 10° NNW
NOSS 2-3 (C) 4.4 17:51:38 10° NNW 17:56:55 70° NE 17:58:25 52° ESE
Cosmos 2112 Rocket 4.0 17:52:50 10° NNW 17:58:03 77° WSW 17:59:00 59° S
Cosmos 1727 Rocket 4.4 17:52:38 10° N 17:58:41 44° ENE 17:59:04 44° E
Cosmos 2366 rocket 3.9 17:55:28 23° S 17:59:31 82° W 18:05:42 10° N
Cosmos 1241 Rocket 4.4 17:53:41 10° NNW 17:59:58 75° ENE 18:01:17 57° ESE
USA 245 4.4 18:04:11 38° NNE 18:04:11 38° NNE 18:07:14 10° N
NOSS 3-2 (C) 4.2 17:57:46 10° NW 18:05:22 73° WSW 18:08:57 40° SSE
Cosmos 2278 Rocket 2.4 18:00:10 10° NNW 18:05:44 54° ENE 18:05:59 54° ENE
Ariane Rocket 3.7 18:06:44 40° NE 18:06:44 40° NE 18:10:51 10° N
USA 32 4.1 18:13:32 63° SW 18:14:18 76° W 18:19:33 10° N
Spot 2 Rocket 3.8 18:13:51 55° SW 18:14:33 61° W 18:19:32 10° NNW
NOSS 2-3 (D) 4.5 18:10:45 10° NW 18:16:08 72° WSW 18:17:13 60° S
Cosmos 2218 Rocket 4.5 18:21:24 25° SSW 18:24:53 57° W 18:30:56 10° N
Lacrosse 5 rocket 3.7 18:25:15 10° WNW 18:27:17 16° NNW 18:27:17 16° NNW
Meteor 2-15 Rocket 4.4 18:29:48 70° SSW 18:30:32 81° W 18:36:39 10° N
Cosmos 1943 Rocket 2.2 18:25:57 10° NNW 18:31:28 77° W 18:31:28 77° W
USA 59 Rocket 2.3 18:31:06 10° N 18:31:45 13° N 18:31:45 13° N
NOSS 3-4 (A) 4.0 18:35:57 40° NNE 18:35:57 40° NNE 18:39:33 10° NE
NOSS 3-4 (C) 4.0 18:36:30 39° NE 18:36:30 39° NE 18:40:05 10° NE
Meteor 1-11 4.2 18:29:03 10° NNW 18:34:17 76° NW 18:34:17 76° NW
IRS-1C Rocket 4.4 18:40:00 64° NNW 18:40:00 64° NNW 18:44:27 10° NNW
SeaSat 1 3.9 18:40:17 29° NNE 18:40:17 29° NNE 18:43:29 10° N
Cosmos 1821 Rocket 4.3 18:37:50 46° SW 18:39:28 62° W 18:45:43 10° N
CZ-4B R/B 4.0 18:40:30 55° NW 18:40:30 55° NW 18:44:19 10° NNW
Cosmos 1733 Rocket 4.4 18:41:28 37° NW 18:41:28 37° NW 18:44:34 10° N
Okean-O 4.3 18:43:16 28° W 18:43:16 28° W 18:46:44 10° NW
Cosmos 2239 Rocket 4.4 18:44:53 79° N 18:44:53 79° N 18:50:41 10° N
Timation 2 Rocket 4.0 18:45:20 10° NNW 18:51:22 77° W 18:51:22 77° W
Cosmos 2237 Rocket 2.9 19:05:49 52° NW 19:05:49 52° NW 19:11:01 10° NNE
Cosmos 1980 4.4 19:06:15 48° WNW 19:06:17 48° WNW 19:11:46 10° NNE
Okean O Rocket 4.1 19:06:43 15° W 19:06:43 15° W 19:09:01 10° NW
Cosmos 2369 Rocket 3.7 19:36:04 10° NNW 19:39:12 30° N 19:39:12 30° N
USA 238 DEB 4.5 19:38:34 10° NW 19:44:50 52° W 19:44:50 52° W
USA 238 4.4 19:38:44 10° NW 19:45:00 52° W 19:45:00 52° W
Cosmos 2278 Rocket 4.3 19:45:08 10° NW 19:47:49 19° WNW 19:47:49 19° WNW
SL-16 R/B 4.0 20:16:16 28° N 20:16:16 28° N 20:18:58 10° NNE
NOSS 3-1 (C) 4.5 20:36:01 10° NNW 20:41:26 56° NNW 20:41:26 56° NNW
COSMOS 2455 4.4 20:58:52 10° NNW 21:02:09 30° N 21:02:09 30° N
NOSS 3-1 (A) 4.4 21:27:03 10° NNW 21:32:39 57° N 21:32:39 57° N
ACS3 Solar Sail 3.0 21:53:08 10° NNE 21:56:52 37° NE 21:56:52 37° NE
USA 267 3.7 22:10:21 10° NE 22:15:28 57° NE 22:15:28 57° NE
ATLAS 2AS CENTAUR R/B 3.1 22:32:27 55° ENE 22:32:27 55° ENE 22:37:57 10° NE
IDEFIX/ARIANE 42P 3.9 22:34:14 10° NNE 22:37:18 36° NNE 22:37:18 36° NNE
USA 281 3.7 22:41:15 52° NNW 22:41:15 52° NNW 22:46:05 10° NNW
Resurs 1-4 Rocket 4.1 22:38:14 10° NE 22:42:07 21° E 22:42:07 21° E
Cosmos 1833 Rocket 3.7 22:44:45 43° NNE 22:44:45 43° NNE 22:48:29 10° NNE
Cosmos 1464 Rocket 4.5 22:44:57 54° N 22:44:57 54° N 22:49:36 10° N
USA 234 3.4 22:45:39 10° ESE 22:52:07 69° NE 22:58:38 10° NW
ALOS 4.5 22:50:15 10° NE 22:52:55 18° E 22:52:55 18° E
Nadezhda 4 Rocket 4.5 22:49:11 10° N 22:53:47 53° NNW 22:53:47 53° NNW
Cosmos 2034 Rocket 4.2 22:58:19 69° NNE 22:58:19 69° NNE 23:03:54 10° N
FENGYUN 3A 4.3 22:57:24 10° NNE 23:01:32 53° NNE 23:01:32 53° NNE
Timation 1 Rocket 4.5 23:11:16 70° NE 23:11:16 70° NE 23:16:38 10° NNE
NPP 4.2 23:10:05 10° N 23:14:15 53° N 23:14:15 53° N
CZ-2D R/B 2.9 23:17:49 10° NNE 23:22:46 42° E 23:23:08 41° ESE
Cosmos 1697 Rocket 3.8 23:21:53 10° NNW 23:24:53 32° NW 23:24:53 32° NW
Cosmos 1092 Rocket 3.8 23:21:45 10° N 23:27:57 85° E 23:28:16 80° SE
Cosmos 2026 Rocket 3.8 23:22:59 10° N 23:29:02 80° WNW 23:29:02 80° WNW
BREEZE-M DEB (TANK) 4.2 23:31:11 26° NNE 23:31:11 26° NNE 23:35:31 10° ENE
Cosmos 1867 3.5 23:37:22 78° N 23:37:22 78° N 23:42:31 10° NNE
Meteor 1-26 Rocket 4.1 23:39:28 76° ESE 23:39:38 77° E 23:45:02 10° NNE
ACS3 Solar Sail 3.1 23:36:16 10° NNW 23:40:25 25° NW 23:40:25 25° NW
Cosmos 1980 Rocket 2.3 23:37:27 10° NNW 23:43:11 76° ENE 23:45:53 32° SE
Cosmos 1302 Rocket 4.1 23:43:46 62° NNW 23:43:46 62° NNW 23:48:23 10° NNE
BREEZE-M DEB (TANK) 4.2 23:55:33 40° WNW 23:56:34 44° NW 23:59:37 10° NE
